Location: Moscow
(55.7500°N, 37.5830°E)
Time: 20:12:13
(UTC+03:00)

Tiros 1 despin weight - Pass Details

Date: 07 December 2021
Orbit: 592 x 641 km, 48.2° (Epoch: 21 January)

Event Time Altitude Azimuth Distance (km) Brightness Sun altitude
Rises 17:34:49 0° 268° (W) 2,827 ? -12.4°
Reaches altitude 10° 17:37:52 10° 246° (WSW) 1,922 ? -12.8°
Maximum altitude 17:40:28 16° 209° (SSW) 1,592 ? -13.1°
Drops below altitude 10° 17:43:04 10° 173° (S) 1,920 ? -13.4°
Sets 17:46:07 0° 151° (SSE) 2,824 ? -13.8°
